Regional Weather Roundup
Issued by NWS

Home | Current Version | Previous Version | Text Only | Print | Product List | Glossary On
Versions: 1 2 3 4 5 6 7 8 9 10 11 12 13 14 15 16 17 18 19 20 21 22 23 24 25 26 27
000
ASUS45 KREV 171610
RWRNV
NEVADA REGIONAL WEATHER ROUNDUP
NATIONAL WEATHER SERVICE RENO NV
900 AM PDT THU JUN 17 2021

NOTE: "FAIR" INDICATES FEW OR NO CLOUDS BELOW 12,000 FEET WITH NO
SIGNIFICANT WEATHER AND/OR OBSTRUCTIONS TO VISIBILITY.

NVZ001-003-004-171700-
WESTERN NEVADA

CITY           SKY/WX    TMP DP  RH WIND       PRES   REMARKS
RENO           MOSUNNY   73  35  25 CALM      30.13S
CARSON CITY    FAIR      73  27  17 CALM      30.14F
MINDEN         FAIR      72  32  23 CALM      30.13F
SLIDE MTN        N/A     63  23  22 W8          N/A
PYRAMID LAKE     N/A     73 N/A N/A N2          N/A
FALLON         SUNNY     77  33  20 CALM      30.08R
LOVELOCK       SUNNY     79  34  19 NE12      30.07S
HAWTHORNE      SUNNY     77  25  14 NW7       30.10S
$$

NVZ002-CAZ072-073-171700-
NORTHERN AND CENTRAL SIERRA

CITY           SKY/WX    TMP DP  RH WIND       PRES   REMARKS
S. LAKE TAHOE  SUNNY     67  37  33 NE6       30.24S
TRUCKEE        SUNNY     59  30  33 CALM      30.23F
SQUAW VLY 8000   N/A     72  10   9 S5          N/A
SUSANVILLE     FAIR      72  30  21 CALM      30.12S
BLUE CANYON    SUNNY     80  16   9 CALM      30.16R
MAMMOTH LAKES  FAIR      70  36  28 SE5       30.32S
BRIDGEPORT       N/A     63  36  36 SE1         N/A
$$

NVZ030-031-036-171700-
NORTHERN NEVADA

CITY           SKY/WX    TMP DP  RH WIND       PRES   REMARKS
ELKO           SUNNY     72  29  20 CALM      30.18S
WINNEMUCCA     SUNNY     77  35  21 NE12      30.12S
BATTLE MOUNTAI SUNNY     73  32  21 N3        30.14F
WENDOVER       MOSUNNY   77  31  18 SE6       30.13S
$$

NVZ035-037-171700-
CENTRAL NEVADA

CITY           SKY/WX    TMP DP  RH WIND       PRES   REMARKS
ELY            MOSUNNY   77  28  16 CALM      30.24S
EUREKA           N/A     75  28  17 N7        30.22S
$$

NVZ013-014-171700-
SOUTH CENTRAL NEVADA

CITY           SKY/WX    TMP DP  RH WIND       PRES   REMARKS
TONOPAH        PTSUNNY   81  23  11 S8        30.21R
$$

NVZ017-020-022-171700-
SOUTHERN NEVADA

CITY           SKY/WX    TMP DP  RH WIND       PRES   REMARKS
LAS VEGAS      PTSUNNY   98  37  12 NE8       29.87S
N. LAS VEGAS   PTSUNNY   99  35  10 CALM      29.82F
NELLIS AFB     PTSUNNY   96  35  12 E8        29.84R
HENDERSON      PTSUNNY  100  39  12 SE6       29.90S
MERCURY        PTSUNNY   96  25   8 NW7       29.96F
$$



USA.gov is the U.S. government's official web portal to all federal, state and local government web resources and services.